Terminal Aerodrome Forecast
Issued by NWS Sioux Falls, SD

Home | Current Version | Previous Version | Graphics & Text | Print | Product List | Glossary Off
Versions: 1 2 3 4 5 6 7 8 9 10 11 12

000
FTUS43 KFSD 032320
TAFFSD
TAF
KFSD 032320Z 0400/0424 31013G21KT P6SM SCT060
     FM040200 35007KT P6SM SKC
     FM041600 34012KT P6SM SKC=

USA.gov is the U.S. government's official web portal to all federal, state and local government web resources and services.